Regional Weather Roundup
Issued by NWS

Home | Current Version | Previous Version | Graphics & Text | Print | Product List | Glossary On
Versions: 1 2 3 4 5 6 7 8 9 10 11 12 13 14 15 16 17 18 19 20 21 22 23 24 25 26 27 28 29 30 31 32 33 34 35 36 37 38 39 40 41 42 43 44 45 46 47 48 49 50
000
ASUS43 KMPX 300510
RWRMN
WEATHER ROUNDUP FOR MINNESOTA
NATIONAL WEATHER SERVICE TWIN CITIES/CHANHASSEN MN
1200 AM CDT THU OCT 30 2014


NOTE: "FAIR" INDICATES FEW OR NO CLOUDS BELOW 12,000 FEET WITH NO
SIGNIFICANT WEATHER AND/OR OBSTRUCTIONS TO VISIBILITY. N/A MEANS
CURRENT SKY AND/OR WEATHER CONDITIONS ARE NOT AVAILABLE.

MNZ060>063-068>070-300600-
   Twin Cities Metro

CITY           SKY/WX    TMP DP  RH WIND       PRES   REMARKS
TWIN CITIES    CLOUDY    37  32  82 CALM      30.09S
ST PAUL        CLOUDY    37  33  85 CALM      30.10S
CRYSTAL        CLOUDY    37  32  82 CALM      30.08S
BLAINE         CLOUDY    37  36  93 CALM      30.08S
LAKEVILLE      CLOUDY    32  30  93 CALM      30.08S
EDEN PRAIRIE   CLOUDY    39  32  76 E3        30.07F
SOUTH ST PAUL  CLOUDY    37  33  84 CALM      30.09S
LAKE ELMO      FAIR      32  32 100 CALM      30.09S
$$
MNZ001>005-007-008-013>017-022>024-027-028-300600-
   Northwest Minnesota

CITY           SKY/WX    TMP DP  RH WIND       PRES   REMARKS
BEMIDJI        CLOUDY    33  31  90 SE5       30.02F WCI  29
HALLOCK        MOCLDY    36  32  87 NE7       30.02S
ROSEAU         PTCLDY    34  28  80 CALM      30.04R
WARROAD        CLOUDY    32  28  86 CALM      30.04S
THIEF RVR FALL CLOUDY    36  30  80 SE7       30.01S
CROOKSTON      MIX PCPN  37  34  87 SE6       30.01S
FOSSTON        CLOUDY    34  32  93 SE3       30.01F
DETROIT LAKES  CLOUDY    37  34  87 SE6       30.02F
MOORHEAD       CLOUDY    39  36  87 S6        30.02S
PARK RAPIDS    CLOUDY    35  30  82 S8        30.02F WCI  29
MAHNOMEN       CLOUDY    35  31  88 SE5       30.00F WCI  31
$$
MNZ006-009>011-018-025>026-300600-
   North Central Minnesota

CITY           SKY/WX    TMP DP  RH WIND       PRES   REMARKS
BAUDETTE       CLOUDY    35  32  88 CALM      30.03F
FLAG ISLAND    CLOUDY    36  32  87 W5        30.02F
INTL FALLS     LGT RAIN  34  33  96 CALM      30.03F
WASKISH        CLOUDY    36  32  87 CALM      30.03F
BIG FORK       CLOUDY    36  34  93 CALM      30.04F
LONGVILLE      CLOUDY    30  30 100 CALM      30.04F
GRAND RAPIDS   CLOUDY    36  30  80 SW3       30.04F
CRANE LAKE     CLOUDY    36  34  93 CALM      30.05F
ORR            CLOUDY    34  32  93 CALM      30.01F
COOK           DRIZZLE   34  34 100 CALM      30.04F
WALKER         CLOUDY    34  30  85 CALM      30.03F
$$
MNZ012-019>021-037-300600-
   Northeast Minnesota

CITY           SKY/WX    TMP DP  RH WIND       PRES   REMARKS
DULUTH         CLOUDY    37  31  78 W7        30.04F
ELY            CLOUDY    36  34  93 W3        30.03F
HIBBING        CLOUDY    35  32  88 S3        30.04F
EVELETH        CLOUDY    34  34 100 W5        30.05F WCI  30
DULUTH HARBOR  CLOUDY    39  36  87 W10       30.08F
TWO HARBORS    CLOUDY    39 N/A N/A W6        30.04S
SILVER BAY     CLOUDY    37  36  93 CALM      30.03F
GRAND MARAIS     N/A     41  35  79 CALM      30.04F
G MARAIS ARPRT CLOUDY    36  30  80 W1        30.02F
$$
MNZ029>031-032-039>041-046>048-054>057-064-300600-
   West Central Minnesota

CITY           SKY/WX    TMP DP  RH WIND       PRES   REMARKS
FERGUS FALLS   RAIN      37  34  87 SE7       30.04F
WHEATON        LGT RAIN  36  34  93 SE7       30.04F
MORRIS         LGT RAIN  37  34  87 SE7       30.03S
ALEXANDRIA     CLOUDY    37  31  78 SE7       30.04F
ELBOW LAKE     LGT RAIN  37  33  85 SE9       30.03F
WADENA         CLOUDY    34  30  86 SE5       30.03F WCI  30
GLENWOOD       CLOUDY    36  32  87 E5        30.05S
APPLETON       LGT RAIN  39  34  81 E6        30.03R
BENSON         CLOUDY    37  34  87 SE7       30.04S
ORTONVILLE     LGT RAIN  39  34  81 SE6       30.01F
MADISON        LGT RAIN  43  37  81 E5        30.02S
WILLMAR        FAIR      39  32  75 E7        30.05S
$$
MNZ033>034-036-042>043-049>051-058-059-300600-
   Central Minnesota

CITY           SKY/WX    TMP DP  RH WIND       PRES   REMARKS
ST CLOUD       CLOUDY    37  33  85 S3        30.07S
SAUK CENTRE    DRIZZLE   36  32  87 SE7       30.05F
PAYNESVILLE    CLOUDY    35  31  87 CALM      30.06F
AITKIN         CLOUDY    37  32  81 CALM      30.04S
PINE RIVER     CLOUDY    34  32  93 CALM      30.08S
BRAINERD       CLOUDY    35  31  85 CALM      30.06S
STAPLES        CLOUDY    34  30  86 CALM      30.04F
LONG PRAIRIE   MIX PCPN  34  32  93 SE6       30.05F WCI  29
LITTLE FALLS   CLOUDY    34  32  93 CALM      30.06F
LITCHFIELD     CLOUDY    37  36  93 E5        30.06F
BUFFALO        CLOUDY    36  32  85 CALM      30.08F
MAPLE LAKE     CLOUDY    38  35  90 CALM      30.08S
$$
MNZ037-044-045-052-053-300600-
   East Central Minnesota

CITY           SKY/WX    TMP DP  RH WIND       PRES   REMARKS
PRINCETON      CLOUDY    37  34  87 CALM      30.07F
MORA           CLOUDY    36  32  87 CALM      30.08F
CAMBRIDGE      CLOUDY    39  30  70 CALM      30.06S
RUSH CITY      CLOUDY    36  32  85 CALM      30.08S
MOOSE LAKE     CLOUDY    36  32  87 CALM      30.04F
HINCKLEY       CLOUDY    36  34  93 CALM      30.07F
CLOQUET        CLOUDY    36  32  87 CALM      30.05F
MCGREGOR       CLOUDY    36  34  93 CALM      30.06F
$$
MNZ071>073-080-081-089-090-097-098-300600-
   Southwest Minnesota

CITY           SKY/WX    TMP DP  RH WIND       PRES   REMARKS
MONTEVIDEO     CLOUDY    39  34  81 SE5       30.03F
GRANITE FALLS  CLOUDY    40  31  70 E3        30.04S
CANBY          CLOUDY    40  36  86 NE3       30.02S
MARSHALL       CLOUDY    43  30  61 E6        29.99F
REDWOOD FALLS  CLOUDY    40  31  70 SE5       30.03F
OLIVIA         CLOUDY    39  32  75 E5        30.03F
PIPESTONE      CLOUDY    45  30  57 S7        29.99F
WINDOM         CLOUDY    41  32  70 CALM      30.03F
WORTHINGTON    CLOUDY    45  30  57 S7        30.02F
JACKSON        CLOUDY    43  32  65 S7        30.03F
TRACY          CLOUDY    46  32  58 S7        30.00F
SLAYTON        CLOUDY    41  32  70 CALM      30.01F
$$
MNZ065>067-074>077-082>085-091>093-300600-
   South Central Minnesota

CITY           SKY/WX    TMP DP  RH WIND       PRES   REMARKS
MANKATO        CLOUDY    37  28  70 SE8       30.06F
NEW ULM        CLOUDY    39  32  75 S6        30.05F
ST JAMES       MOCLDY    39  32  75 SE3       30.06F
FAIRMONT       MOCLDY    39  28  65 CALM      30.06S
GLENCOE        CLOUDY    37  33  85 E5        30.06F
FARIBAULT      CLOUDY    36  30  80 CALM      30.08S
OWATONNA       CLOUDY    37  32  81 SE7       30.08S
WASECA         CLOUDY    36  30  80 SE3       30.09S
ALBERT LEA     CLOUDY    37  34  87 S3        30.08S
$$
MNZ078>079-086>088-094>096-300600-
   Southeast Minnesota

CITY           SKY/WX    TMP DP  RH WIND       PRES   REMARKS
ROCHESTER      CLOUDY    33  31  92 S3        30.09F
RED WING       CLOUDY    34  32  93 CALM      30.09S
STANTON        CLOUDY    34  31  87 CALM      30.08R
DODGE CENTER   CLOUDY    36  34  93 S5        30.08S
WINONA         PTCLDY    34  32  93 CALM      30.12S
AUSTIN         CLOUDY    36  30  80 S5        30.09S
PRESTON        CLOUDY    33  30  90 S5        30.10S WCI  29
$$
ABBREVIATIONS USED IN REMARKS
   TC - TEMPERATURES IN CELSIUS
  WCI - WIND CHILL INDEX
   HX - HEAT INDEX
  VSB - VISIBILITY
$$



USA.gov is the U.S. government's official web portal to all federal, state and local government web resources and services.